Weather History for Newcastle, WY

Change the Weather History Date:

Wednesday, May 8, 2013

  Actual Average (KCUT) Record (KCUT)
Temperature  
Mean Temperature 57 °F 46 °F  
Max Temperature 73 °F 58 °F 78 °F (1970)
Min Temperature 41 °F 34 °F 20 °F (1944)
Degree Days  
Heating Degree Days 8 19  
Month to date heating degree days 160  
Since 1 July heating degree days 7810  
Cooling Degree Days 0 0  
Month to date cooling degree days 0  
Year to date cooling degree days 0  
Growing Degree Days 7 (Base 50)    
Moisture  
Dew Point 30 °F    
Average Humidity 36    
Maximum Humidity 76    
Minimum Humidity 16    
Precipitation  
Precipitation 0.00 in 0.08 in 0.98 in (1993)
Month to date precipitation 0.75  
Year to date precipitation 4.74  
Sea Level Pressure  
Sea Level Pressure 30.01 in    
Wind  
Wind Speed 7 mph (NNE)    
Max Wind Speed 15 mph    
Max Gust Speed 25 mph    
Visibility 10 miles    
Events      
T = Trace of Precipitation, MM = Missing Value Source: NWS Daily Summary

Daily Weather History Graph

Daily Weather History Graph

Search for Another Location

Airport:

Trip Planner

Search our weather history database for the weather conditions in past years. The results will help you decide how hot, cold, wet, or windy it might be!

Date:

Astronomy

May. 08, 2013 Rise Set
Actual Time 5:39 AM MDT 8:08 PM MDT
Civil Twilight 5:06 AM MDT 8:41 PM MDT
Nautical Twilight 4:26 AM MDT 9:22 PM MDT
Astronomical Twilight 3:40 AM MDT 10:08 PM MDT
Moon 4:51 AM MDT (5/8) 7:07 PM MDT (5/8)
Length of Visible Light 15h 34m
Length of Day
14h 29m
Waning Crescent, 2% of the Moon is Illuminated
May 8
Waning Crescent
May 9
New
May 17
First Quarter
May 24
Full
May 31
Last Quarter

Hourly Weather History & Observations

Time (MDT) Temp. Windchill Dew Point Humidity Pressure Visibility Wind Dir Wind Speed Gust Speed Precip Events Conditions
12:15 AM 51.8 °F - 35.6 °F 54% 29.93 in 10.0 mi WNW 5.8 mph - N/A   Clear
12:35 AM 55.4 °F - 35.6 °F 47% 29.93 in 10.0 mi NE 4.6 mph - N/A   Clear
12:55 AM 57.2 °F - 35.6 °F 44% 29.93 in 10.0 mi North - - N/A   Scattered Clouds
1:15 AM 53.6 °F - 35.6 °F 51% 29.93 in 10.0 mi Calm Calm - N/A   Scattered Clouds
1:35 AM 48.2 °F - 35.6 °F 62% 29.93 in 10.0 mi WNW 8.1 mph - N/A   Clear
1:55 AM 46.4 °F - 35.6 °F 66% 29.94 in 10.0 mi Calm Calm - N/A   Clear
2:15 AM 50.0 °F - 33.8 °F 54% 29.94 in 10.0 mi NNW 6.9 mph - N/A   Clear
2:35 AM 46.4 °F 42.4 °F 33.8 °F 62% 29.93 in 10.0 mi North 8.1 mph - N/A   Scattered Clouds
2:55 AM 44.6 °F 42.2 °F 33.8 °F 66% 29.94 in 10.0 mi NNW 4.6 mph - N/A   Scattered Clouds
3:15 AM 44.6 °F - 33.8 °F 66% 29.94 in 10.0 mi Calm Calm - N/A   Clear
3:35 AM 44.6 °F - 33.8 °F 66% 29.94 in 10.0 mi Calm Calm - N/A   Clear
3:55 AM 44.6 °F 40.2 °F 35.6 °F 71% 29.94 in 10.0 mi North 8.1 mph - N/A   Clear
4:15 AM 41.0 °F 38.0 °F 33.8 °F 76% 29.94 in 10.0 mi NW 4.6 mph - N/A   Clear
4:35 AM 42.8 °F - 33.8 °F 70% 29.94 in 10.0 mi Calm Calm - N/A   Clear
4:55 AM 44.6 °F - 33.8 °F 66% 29.95 in 10.0 mi Calm Calm - N/A   Clear
5:15 AM 44.6 °F 42.2 °F 33.8 °F 66% 29.95 in 10.0 mi North 4.6 mph - N/A   Clear
5:35 AM 42.8 °F - 33.8 °F 70% 29.95 in 10.0 mi Calm Calm - N/A   Clear
5:55 AM 44.6 °F 42.2 °F 32.0 °F 61% 29.95 in 10.0 mi North 4.6 mph - N/A   Clear
6:15 AM 44.6 °F 40.7 °F 32.0 °F 61% 29.97 in 10.0 mi North 6.9 mph - N/A   Clear
6:35 AM 46.4 °F 41.5 °F 32.0 °F 57% 29.97 in 10.0 mi North 10.4 mph - N/A   Clear
6:55 AM 50.0 °F - 32.0 °F 50% 29.98 in 10.0 mi North 8.1 mph - N/A   Clear
7:15 AM 51.8 °F - 32.0 °F 47% 29.99 in 10.0 mi North 8.1 mph - N/A   Clear
7:35 AM 55.4 °F - 32.0 °F 41% 29.99 in 10.0 mi North 9.2 mph - N/A   Clear
7:55 AM 59.0 °F - 33.8 °F 39% 30.00 in 10.0 mi Calm Calm - N/A   Clear
8:15 AM 62.6 °F - 32.0 °F 32% 30.00 in 10.0 mi North 8.1 mph - N/A   Clear
8:35 AM 64.4 °F - 30.2 °F 28% 30.00 in 10.0 mi NNE 10.4 mph 17.3 mph N/A   Clear
8:55 AM 66.2 °F - 26.6 °F 23% 30.00 in 10.0 mi NE 9.2 mph - N/A   Clear
9:15 AM 66.2 °F - 26.6 °F 23% 30.01 in 10.0 mi North - - N/A   Clear
9:35 AM 68.0 °F - 26.6 °F 21% 30.01 in 10.0 mi NNE 6.9 mph - N/A   Clear
9:55 AM 68.0 °F - 28.4 °F 23% 30.02 in 10.0 mi North 8.1 mph 16.1 mph N/A   Clear
10:15 AM 68.0 °F - 26.6 °F 21% 30.02 in 10.0 mi NNE 8.1 mph 17.3 mph N/A   Clear
10:35 AM 68.0 °F - 26.6 °F 21% 30.02 in 10.0 mi North 4.6 mph 18.4 mph N/A   Clear
10:55 AM 69.8 °F - 26.6 °F 20% 30.02 in 10.0 mi ENE 9.2 mph 17.3 mph N/A   Clear
11:15 AM 71.6 °F - 26.6 °F 19% 30.02 in 10.0 mi NNE 13.8 mph 19.6 mph N/A   Clear
11:35 AM 71.6 °F - 26.6 °F 19% 30.02 in 10.0 mi North 12.7 mph - N/A   Clear
11:55 AM 71.6 °F - 26.6 °F 19% 30.02 in 10.0 mi North 6.9 mph - N/A   Clear
12:15 PM 71.6 °F - 26.6 °F 19% 30.02 in 10.0 mi NE 11.5 mph 18.4 mph N/A   Clear
12:35 PM 73.4 °F - 26.6 °F 18% 30.03 in 10.0 mi North 8.1 mph - N/A   Clear
12:55 PM 69.8 °F - 26.6 °F 20% 30.02 in 10.0 mi NE 11.5 mph - N/A   Scattered Clouds
1:15 PM 71.6 °F - 28.4 °F 20% 30.02 in 10.0 mi NNW 15.0 mph 24.2 mph N/A   Clear
1:35 PM 68.0 °F - 28.4 °F 23% 30.02 in 10.0 mi NNE 11.5 mph 16.1 mph N/A   Clear
1:55 PM 71.6 °F - 28.4 °F 20% 30.02 in 10.0 mi NNW 10.4 mph 16.1 mph N/A   Clear
2:15 PM 69.8 °F - 24.8 °F 18% 30.02 in 10.0 mi North 9.2 mph - N/A   Clear
2:35 PM 69.8 °F - 26.6 °F 20% 30.02 in 10.0 mi North 11.5 mph 18.4 mph N/A   Scattered Clouds
2:55 PM 71.6 °F - 24.8 °F 17% 30.02 in 10.0 mi NNW 6.9 mph 21.9 mph N/A   Clear
3:15 PM 71.6 °F - 23.0 °F 16% 30.02 in 10.0 mi North 8.1 mph 17.3 mph N/A   Clear
3:35 PM 71.6 °F - 23.0 °F 16% 30.02 in 10.0 mi NE 11.5 mph 21.9 mph N/A   Clear
3:55 PM 69.8 °F - 24.8 °F 18% 30.02 in 10.0 mi NNE 11.5 mph 17.3 mph N/A   Clear
4:15 PM 71.6 °F - 23.0 °F 16% 30.02 in 10.0 mi North 8.1 mph - N/A   Clear
4:35 PM 71.6 °F - 26.6 °F 19% 30.02 in 10.0 mi NNE 11.5 mph 25.3 mph N/A   Clear
4:55 PM 69.8 °F - 26.6 °F 20% 30.03 in 10.0 mi NNE 5.8 mph 11.5 mph N/A   Clear
5:15 PM 71.6 °F - 28.4 °F 20% 30.03 in 10.0 mi North - - N/A   Clear
5:35 PM 69.8 °F - 28.4 °F 21% 30.04 in 10.0 mi NNE 11.5 mph 19.6 mph N/A   Clear
5:55 PM 69.8 °F - 26.6 °F 20% 30.04 in 10.0 mi NNE 11.5 mph - N/A   Clear
6:15 PM 68.0 °F - 26.6 °F 21% 30.04 in 10.0 mi NNE 11.5 mph - N/A   Clear
6:35 PM 68.0 °F - 24.8 °F 20% 30.04 in 10.0 mi NE 10.4 mph 17.3 mph N/A   Clear
6:55 PM 68.0 °F - 26.6 °F 21% 30.05 in 10.0 mi NNE 13.8 mph 18.4 mph N/A   Clear
7:15 PM 66.2 °F - 24.8 °F 21% 30.06 in 10.0 mi NNE 12.7 mph 18.4 mph N/A   Clear
7:35 PM 64.4 °F - 26.6 °F 24% 30.06 in 10.0 mi NNE 9.2 mph 18.4 mph N/A   Clear
7:55 PM 62.6 °F - 28.4 °F 27% 30.07 in 10.0 mi NNE 9.2 mph - N/A   Clear
8:15 PM 60.8 °F - 26.6 °F 27% 30.08 in 10.0 mi NNE 8.1 mph - N/A   Clear
8:35 PM 59.0 °F - 28.4 °F 31% 30.09 in 10.0 mi NNE 11.5 mph - N/A   Clear
8:55 PM 59.0 °F - 28.4 °F 31% 30.10 in 10.0 mi NNE 9.2 mph - N/A   Clear
9:15 PM 59.0 °F - 28.4 °F 31% 30.10 in 10.0 mi NNE 10.4 mph - N/A   Clear
9:55 PM 57.2 °F - 30.2 °F 36% 30.11 in 10.0 mi NE 9.2 mph - N/A   Clear
10:35 PM 57.2 °F - 32.0 °F 38% 30.12 in 10.0 mi North - - N/A   Clear
10:55 PM 55.4 °F - 32.0 °F 41% 30.12 in 10.0 mi ENE 12.7 mph - N/A   Clear
11:35 PM 55.4 °F - 32.0 °F 41% 30.12 in 10.0 mi North - - N/A   Clear